Total_Precipitation_Accumulation
1.79 1.95 2.18 2.53 2.62 2.63 2.60 2.38 2.24 2.14 2.10 2.15 2.18 2.24 2.29 2.32 2.31 2.22 2.04 1.96 1.97 1.90 1.83 1.83 1.76 1.68 1.68 1.68 1.72 1.74 1.77 1.88 1.85 1.35 1.14 1.10 1.14 1.15 1.19 1.15 1.09 1.09 1.08
1.61 1.68 1.81 2.08 2.33 2.44 2.55 2.43 2.24 2.13 2.01 1.99 1.96 1.97 1.97 1.96 2.01 2.02 1.90 1.80 1.80 1.75 1.70 1.71 1.71 1.69 1.70 1.64 1.62 1.60 1.54 1.51 1.60 1.42 1.13 1.10 1.09 1.07 1.15 1.20 1.14 1.05 0.97
1.50 1.51 1.63 1.79 1.97 2.09 2.18 2.28 2.21 2.18 2.05 1.95 1.89 1.86 1.83 1.81 1.81 1.82 1.82 1.73 1.69 1.64 1.58 1.58 1.57 1.63 1.62 1.54 1.49 1.44 1.40 1.40 1.46 1.47 1.24 1.10 1.10 1.09 1.16 1.20 1.17 1.14 1.06
1.47 1.39 1.46 1.55 1.71 1.83 1.84 1.97 2.01 2.05 2.09 1.95 1.80 1.74 1.70 1.71 1.75 1.76 1.82 1.79 1.69 1.63 1.59 1.55 1.48 1.46 1.43 1.40 1.40 1.40 1.45 1.56 1.57 1.60 1.47 1.26 1.18 1.16 1.24 1.26 1.25 1.17 1.17
1.46 1.38 1.37 1.36 1.44 1.56 1.58 1.66 1.75 1.82 1.95 1.96 1.84 1.77 1.71 1.68 1.72 1.75 1.79 1.79 1.74 1.68 1.58 1.50 1.44 1.45 1.41 1.39 1.43 1.44 1.52 1.70 1.81 1.85 1.72 1.52 1.38 1.30 1.28 1.22 1.30 1.31 1.32
1.37 1.37 1.33 1.30 1.32 1.40 1.42 1.44 1.50 1.62 1.75 1.86 1.88 1.83 1.77 1.73 1.94 1.92 1.81 1.77 1.77 1.72 1.64 1.51 1.45 1.46 1.40 1.41 1.45 1.53 1.69 1.89 2.03 2.04 1.91 1.67 1.37 1.23 1.23 1.38 1.56 1.77 1.72
1.27 1.28 1.33 1.37 1.35 1.38 1.38 1.38 1.45 1.54 1.65 1.76 1.82 1.85 1.85 1.89 1.96 1.79 1.83 1.73 1.70 1.67 1.59 1.53 1.45 1.37 1.39 1.24 1.32 1.45 1.53 1.68 1.77 1.77 1.73 1.41 1.25 1.20 1.46 1.75 1.79 1.84 1.63
1.14 1.19 1.22 1.29 1.33 1.33 1.35 1.36 1.42 1.49 1.59 1.69 1.76 1.73 1.72 1.79 1.83 1.69 1.69 1.62 1.65 1.64 1.55 1.47 1.46 1.43 1.41 1.45 1.48 1.52 1.35 1.26 1.29 1.25 1.28 1.25 1.26 1.39 1.71 2.08 2.20 2.21 1.95
1.08 1.19 1.24 1.29 1.32 1.34 1.39 1.40 1.42 1.50 1.57 1.56 1.58 1.61 1.60 1.65 1.68 1.59 1.57 1.47 1.54 1.52 1.45 1.40 1.39 1.35 1.55 1.73 1.75 1.73 1.47 1.22 1.23 1.35 1.45 1.47 1.56 1.69 1.82 2.21 2.52 2.67 2.33
1.10 1.21 1.25 1.29 1.38 1.40 1.39 1.40 1.40 1.45 1.53 1.47 1.42 1.41 1.41 1.42 1.52 1.47 1.45 1.38 1.42 1.39 1.37 1.36 1.46 1.44 1.61 1.74 1.67 1.74 1.66 1.36 1.26 1.32 1.37 1.41 1.37 1.48 1.76 1.92 2.45 3.04 2.73
1.15 1.19 1.22 1.21 1.27 1.33 1.30 1.29 1.33 1.36 1.36 1.31 1.26 1.24 1.22 1.27 1.35 1.33 1.35 1.33 1.37 1.36 1.32 1.26 1.25 1.49 1.62 1.68 1.60 1.45 1.55 1.60 1.50 1.47 1.47 1.45 1.43 1.46 1.53 1.65 2.04 2.87 3.25
1.04 1.12 1.22 1.22 1.21 1.23 1.25 1.25 1.29 1.27 1.23 1.19 1.14 1.11 1.07 1.12 1.22 1.24 1.30 1.36 1.45 1.37 1.23 1.12 1.18 1.42 1.45 1.50 1.46 1.50 1.67 1.67 1.50 1.63 1.69 1.66 1.60 1.58 1.59 1.66 1.78 2.03 2.36
1.02 1.09 1.17 1.19 1.20 1.24 1.22 1.23 1.23 1.20 1.15 1.10 1.05 1.01 0.98 0.98 1.08 1.22 1.27 1.37 1.42 1.34 1.24 1.27 1.30 1.34 1.31 1.32 1.46 1.60 1.57 1.44 1.57 1.80 1.79 1.68 1.65 1.72 1.79 1.85 1.85 1.86 1.91
1.03 1.05 1.08 1.15 1.18 1.17 1.15 1.18 1.22 1.25 1.20 1.11 1.04 1.00 0.95 0.92 0.95 1.02 1.14 1.23 1.28 1.28 1.30 1.31 1.26 1.24 1.25 1.32 1.43 1.45 1.41 1.48 1.73 1.87 1.83 1.73 1.72 1.83 1.95 2.05 2.20 2.15 2.17
0.89 0.95 0.98 1.03 1.11 1.12 1.11 1.17 1.24 1.27 1.34 1.36 1.26 1.15 1.11 1.06 1.04 1.18 1.25 1.23 1.26 1.29 1.33 1.28 1.23 1.23 1.25 1.22 1.26 1.30 1.38 1.54 1.68 1.68 1.81 1.87 1.85 1.89 1.98 2.08 2.25 2.29 2.21
0.77 0.82 0.88 0.93 0.98 1.00 1.02 1.06 1.16 1.20 1.27 1.29 1.31 1.30 1.21 1.20 1.21 1.22 1.22 1.28 1.36 1.41 1.41 1.36 1.29 1.25 1.26 1.24 1.25 1.30 1.35 1.49 1.64 1.81 1.92 2.02 2.10 2.13 2.17 2.14 2.18 2.22 2.08
0.70 0.77 0.81 0.84 0.89 0.93 0.94 0.96 1.01 1.03 1.04 1.08 1.17 1.25 1.26 1.28 1.24 1.19 1.20 1.25 1.29 1.35 1.35 1.32 1.29 1.30 1.33 1.32 1.34 1.38 1.41 1.45 1.70 1.98 2.11 2.18 2.27 2.30 2.28 2.20 2.06 1.95 1.78
0.58 0.67 0.73 0.75 0.79 0.85 0.88 0.91 0.94 0.94 0.92 0.94 1.01 1.13 1.18 1.20 1.20 1.19 1.20 1.17 1.16 1.15 1.19 1.28 1.34 1.37 1.39 1.41 1.44 1.54 1.62 1.66 1.81 2.01 2.14 2.23 2.38 2.46 2.30 2.03 1.82 1.71 1.62
0.51 0.57 0.64 0.69 0.71 0.76 0.79 0.82 0.86 0.86 0.86 0.85 0.82 0.92 1.04 1.06 1.08 1.12 1.08 1.01 1.02 1.03 1.08 1.19 1.28 1.35 1.40 1.44 1.48 1.60 1.76 1.89 1.96 2.14 2.22 2.31 2.40 2.41 2.13 1.74 1.52 1.42 1.44
0.48 0.56 0.61 0.63 0.63 0.67 0.69 0.72 0.76 0.78 0.79 0.78 0.79 0.86 0.89 0.90 0.92 0.93 0.93 0.94 0.96 0.97 1.00 1.10 1.18 1.28 1.39 1.50 1.58 1.69 1.85 1.93 2.00 2.11 2.21 2.24 2.15 2.06 1.87 1.55 1.40 1.40 1.33
0.47 0.50 0.56 0.54 0.54 0.58 0.62 0.65 0.69 0.73 0.73 0.73 0.78 0.88 0.99 1.00 0.94 0.88 0.89 0.92 0.95 0.99 1.03 1.09 1.15 1.25 1.38 1.53 1.67 1.73 1.82 1.89 1.99 2.12 2.11 1.99 1.83 1.68 1.47 1.42 1.37 1.34 1.33
0.47 0.49 0.50 0.51 0.52 0.56 0.62 0.64 0.68 0.70 0.67 0.67 0.67 0.72 0.84 0.81 0.77 0.78 0.80 0.84 0.87 0.91 0.95 1.05 1.11 1.17 1.43 1.76 2.00 2.07 1.93 1.84 1.86 1.95 1.89 1.68 1.51 1.41 1.38 1.41 1.40 1.39 1.37
0.46 0.49 0.50 0.50 0.53 0.61 0.63 0.59 0.62 0.63 0.63 0.62 0.63 0.64 0.66 0.69 0.69 0.70 0.73 0.74 0.76 0.79 0.82 0.91 1.03 1.07 1.21 1.60 1.99 2.39 2.48 2.21 2.02 2.03 2.05 1.81 1.54 1.44 1.46 1.47 1.40 1.41 1.32
0.44 0.46 0.49 0.50 0.52 0.56 0.58 0.58 0.59 0.61 0.61 0.61 0.61 0.62 0.65 0.67 0.67 0.65 0.66 0.70 0.73 0.73 0.75 0.84 0.94 1.02 1.16 1.51 1.82 2.03 2.22 2.34 2.42 2.36 2.24 2.10 1.75 1.49 1.46 1.44 1.33 1.29 1.28
0.46 0.49 0.51 0.52 0.53 0.55 0.57 0.57 0.57 0.57 0.59 0.60 0.61 0.62 0.62 0.63 0.62 0.60 0.60 0.63 0.66 0.66 0.65 0.71 0.85 1.01 1.19 1.43 1.69 1.88 2.00 2.09 2.08 2.07 2.03 1.91 1.66 1.41 1.39 1.38 1.29 1.24 1.24
0.49 0.51 0.53 0.54 0.54 0.55 0.57 0.57 0.55 0.55 0.57 0.57 0.58 0.60 0.62 0.62 0.61 0.60 0.61 0.62 0.63 0.60 0.59 0.63 0.72 0.91 1.12 1.34 1.54 1.77 1.85 1.72 1.52 1.48 1.65 1.75 1.59 1.36 1.32 1.39 1.29 1.26 1.24